Zurück zum Katalog

QIANFAN-128

AktivKommunikationPO
NORAD 69074·PAYLOAD·🇨🇳 China

Gestartet May 12, 2026 von Taiyuan Satellite Launch Center

Loading…

Nächste Überflüge (nächste 24 Stunden)

TLE

AktuellSource: Space-Track

Epoche: Sep 14, 2026, 21:52 UTC

1 69074U 26104B   26257.91177140  .00000124  00000-0  17310-3 0  9993
2 69074  88.9907 332.3481 0002175 113.9836 246.1543 13.51023121 17258

Verfolge QIANFAN-128 in Echtzeit mit AllMySat

Download on the App Store